[[{"header":{"parameterUnit":"m.s-1","parameterCategory":1,"la1":30.2991,"la2":30.254,"lo1":-89.0895,"lo2":-89.0444,"dy":0.0017,"dx":0.0017,"nx":28,"ny":28,"refTime":"2025-06-07T09:00:00:Z","depth":0,"parameterNumber":2,"parameterNumberName":"U-component_of_WINDS"},"data":[0,0,0,0,0,0,0,0,0,0,0,0,0,0,0,0,0,0,0,0,0,0,0,0,0,0,0,0,0,0,0,0,0,0,0,0,0,0,0,0,0,0,0,0,0,0,0,0,0,0,0,0,0,0,0,0,0,0,2.1099,2.11,0,2.1163,2.1164,2.1165,2.1194,2.1194,2.1194,2.1194,2.1263,2.1265,2.1267,0,0,0,0,0,0,0,0,0,0,0,0,0,2.1007,2.1008,2.1099,2.11,2.1101,2.1163,2.1164,2.1165,2.1194,2.1194,2.1194,2.1194,2.1263,2.1265,2.1267,0,0,0,0,0,0,0,0,0,0,0,0,0,2.1057,2.1009,2.1099,2.1123,2.1125,2.1163,2.1164,2.1165,2.1194,2.1194,2.1194,2.1194,2.1262,2.1265,2.1267,2.1287,0,0,2.1276,2.1277,0,0,0,0,0,0,0,0,2.1054,2.106,2.1118,2.1121,2.1124,2.117,2.1157,2.1206,2.1194,2.1168,2.1194,2.1194,2.1233,2.1238,2.125,2.129,2.1293,2.1276,2.1278,2.1279,2.128,0,0,0,0,0,0,0,2.105,2.1057,2.1124,2.1119,2.1123,2.1132,2.1139,2.1166,2.12,2.117,2.1173,2.118,2.1234,2.1247,2.1252,2.1294,2.1276,2.1279,2.1281,2.1282,2.1356,2.1357,0,0,0,0,0,0,2.1042,2.1054,2.1122,2.1126,2.1088,2.1133,2.1141,2.1156,2.12,2.1207,2.118,2.1181,2.1243,2.1249,2.1255,2.1282,2.1279,2.1282,2.1284,2.1356,2.1357,2.1357,0,0,0,0,0,0,2.104,2.1048,2.112,2.1091,2.1101,2.1135,2.1151,2.1157,2.117,2.1207,2.1214,2.1186,2.1243,2.1251,2.1279,2.1284,2.1283,2.1286,2.1356,2.1356,2.1357,2.1335,0,0,0,0,0,0,2.1037,2.1047,2.1054,2.1091,2.1102,2.1141,2.1152,2.1158,2.1175,2.1177,2.1215,2.1222,2.1243,2.1275,2.1282,2.1288,2.1288,2.1356,2.1356,2.1357,2.1336,2.1335,2.1334,0,0,0,0,0,2.1034,2.1045,2.1054,2.1062,2.1111,2.1142,2.1148,2.1172,2.1175,2.1183,2.1207,2.122,2.1283,2.1277,2.1286,2.1293,2.1355,2.1356,2.1357,2.1336,2.1335,2.1334,0,0,0,0,0,0,2.1008,2.1051,2.106,2.1084,2.1109,2.1146,2.1157,2.117,2.1196,2.1197,2.1226,2.1235,2.1261,2.128,2.1273,2.1316,2.1321,2.1323,2.1302,2.1301,2.1301,2.1295,2.1291,0,0,0,0,0,2.1005,2.1026,2.1062,2.1079,2.1091,2.1122,2.1136,2.1152,2.118,2.1191,2.1217,2.1245,2.1271,2.1287,2.1313,2.1339,2.1349,2.1349,2.1348,2.1347,2.1349,2.1365,2.1366,2.1359,2.1359,2.1359,0,0,2.0999,2.1025,2.1036,2.1075,2.1096,2.1118,2.113,2.1153,2.117,2.1195,2.1223,2.1243,2.1277,2.1304,2.1317,2.1321,2.1353,2.1348,2.1347,2.1349,2.1366,2.1367,2.1367,2.1359,2.1359,2.1359,0,0,2.1,2.102,2.1038,2.1059,2.1091,2.1112,2.1116,2.1152,2.1166,2.1195,2.1215,2.1237,2.1281,2.1304,2.1321,2.1333,2.1347,2.1341,2.1337,2.1353,2.1353,2.1354,2.1359,2.136,2.1342,2.1342,2.1342,0,2.0988,2.102,2.1045,2.1067,2.1084,2.1107,2.1126,2.1146,2.1186,2.1198,2.1201,2.1257,2.1281,2.1315,2.1318,2.1331,2.1338,2.1336,2.1351,2.1352,2.1353,2.1358,2.136,2.1341,2.1341,2.1341,2.1342,0,2.1006,2.1028,2.1038,2.1075,2.1094,2.1114,2.1143,2.116,2.1175,2.1196,2.1226,2.1256,2.1289,2.1298,2.1314,2.1335,2.1336,2.1345,2.135,2.1352,2.1358,2.136,2.134,2.134,2.134,2.1341,0,0,2.0989,2.1041,2.1044,2.1062,2.11,2.1119,2.1141,2.1173,2.1187,2.1214,2.1234,2.1272,2.128,2.13,2.1319,2.1333,2.1342,2.134,2.1341,2.134,2.1369,2.1362,2.1363,2.1352,2.1352,2.1352,2.1366,0,2.0995,2.1034,2.1058,2.1088,2.111,2.1134,2.1154,2.1181,2.1202,2.1225,2.1249,2.1275,2.1284,2.1296,2.1311,2.1337,2.1348,2.1337,2.1372,2.1373,2.1363,2.1366,2.1359,2.137,2.1368,2.1369,2.1369,0,2.1006,2.1032,2.1064,2.1101,2.1112,2.1129,2.1161,2.1182,2.1214,2.1228,2.1251,2.127,2.1297,2.1301,2.1339,2.1331,2.1347,2.1363,2.1364,2.1368,2.1371,2.137,2.1374,2.1375,2.1372,2.1372,2.1372,0,2.0991,2.1035,2.106,2.1074,2.1119,2.113,2.115,2.1181,2.1199,2.1228,2.1241,2.1272,2.129,2.1315,2.1343,2.1343,2.1379,2.1384,2.1393,2.1392,2.1398,2.1397,2.1404,2.1409,2.1409,2.1409,2.1409,0,2.0994,2.1013,2.1054,2.1069,2.1092,2.1121,2.1143,2.1165,2.1193,2.1215,2.1238,2.1258,2.1294,2.1319,2.1342,2.1371,2.1379,2.1392,2.1398,2.139,2.1388,2.14,2.14,2.141,2.1409,2.1409,2.1409,0,2.0981,2.1009,2.1038,2.1078,2.1089,2.1104,2.1139,2.1156,2.1179,2.1206,2.1215,2.1251,2.1282,2.1313,2.1354,2.137,2.1399,2.1406,2.1387,2.139,2.1397,2.1396,2.1412,2.1416,2.1418,2.1418,2.1417,0,2.098,2.0996,2.1038,2.1053,2.1072,2.1097,2.1116,2.1146,2.1165,2.1204,2.1217,2.1249,2.1277,2.1326,2.1357,2.139,2.1398,2.1402,2.1404,2.1396,2.1399,2.1398,2.14,2.1401,2.1401,2.14,2.14,0,2.0977,2.0991,2.1016,2.1048,2.1069,2.1095,2.1122,2.1134,2.117,2.1191,2.1222,2.1244,2.1287,2.132,2.1356,2.1379,2.1396,2.14,2.1404,2.1395,2.1384,2.139,2.1385,2.1399,2.1399,2.1399,2.1399,2.1399,2.0971,2.0986,2.1018,2.1047,2.107,2.1096,2.1114,2.114,2.1166,2.1203,2.122,2.1252,2.1286,2.1337,2.136,2.1386,2.1391,2.1396,2.1397,2.1398,2.1396,2.138,2.1393,2.1393,2.1394,2.1394,2.1394,0,2.0969,2.0991,2.1017,2.1054,2.1077,2.1092,2.1123,2.1142,2.1169,2.1199,2.1226,2.1264,2.1296,2.1331,2.1366,2.1381,2.139,2.1389,2.1388,2.1393,2.139,2.1384,2.1381,2.1381,2.1381,2.1381,2.1381,2.1381,2.097,2.0997,2.1015,2.1055,2.1078,2.1109,2.1126,2.115,2.1174,2.1215,2.1242,2.1264,2.1297,2.1335,2.1366,2.1376,2.1387,2.1384,2.1396,2.1392,2.1393,2.1394,2.1388,2.1387,2.1387,2.1397,2.1397,2.1397]},{"header":{"parameterUnit":"m.s-1","parameterCategory":1,"la1":30.2991,"la2":30.254,"lo1":-89.0895,"lo2":-89.0444,"dy":0.0017,"dx":0.0017,"nx":28,"ny":28,"refTime":"2025-06-07T09:00:00:Z","depth":0,"parameterNumber":3,"parameterNumberName":"V-component_of_WINDS"},"data":[0,0,0,0,0,0,0,0,0,0,0,0,0,0,0,0,0,0,0,0,0,0,0,0,0,0,0,0,0,0,0,0,0,0,0,0,0,0,0,0,0,0,0,0,0,0,0,0,0,0,0,0,0,0,0,0,0,0,3.4313,3.4313,0,3.4353,3.4353,3.4354,3.4379,3.4379,3.4379,3.4379,3.4416,3.4417,3.4418,0,0,0,0,0,0,0,0,0,0,0,0,0,3.4254,3.4255,3.4313,3.4313,3.4314,3.4353,3.4353,3.4354,3.4379,3.4379,3.4379,3.4379,3.4416,3.4417,3.4418,0,0,0,0,0,0,0,0,0,0,0,0,0,3.4285,3.4255,3.4313,3.4331,3.4333,3.4353,3.4353,3.4354,3.4379,3.4379,3.4379,3.4379,3.4416,3.4417,3.4418,3.4422,0,0,3.4422,3.4423,0,0,0,0,0,0,0,0,3.4283,3.4287,3.4328,3.433,3.4332,3.4361,3.4346,3.4377,3.4379,3.4361,3.4379,3.4379,3.4398,3.44,3.4407,3.4423,3.4425,3.4422,3.4423,3.4424,3.4424,0,0,0,0,0,0,0,3.4281,3.4285,3.4329,3.4328,3.4331,3.4336,3.434,3.4352,3.4378,3.4363,3.4365,3.4369,3.4399,3.4406,3.4408,3.4426,3.4422,3.4423,3.4424,3.4425,3.4445,3.4445,0,0,0,0,0,0,3.4276,3.4284,3.4327,3.433,3.4308,3.4337,3.4342,3.4352,3.4378,3.4382,3.4369,3.437,3.4404,3.4407,3.441,3.4415,3.4424,3.4425,3.4426,3.4445,3.4445,3.4445,0,0,0,0,0,0,3.4275,3.428,3.4326,3.4307,3.4313,3.4337,3.4348,3.4352,3.436,3.4382,3.4387,3.4372,3.4404,3.4408,3.4418,3.4416,3.4425,3.4427,3.4446,3.4445,3.4445,3.4425,0,0,0,0,0,0,3.4273,3.428,3.4282,3.4307,3.4314,3.4335,3.4348,3.4353,3.4362,3.4364,3.4386,3.439,3.4404,3.4416,3.442,3.4418,3.4428,3.4446,3.4445,3.4445,3.4426,3.4424,3.4423,0,0,0,0,0,3.4271,3.4275,3.4282,3.4287,3.4319,3.4335,3.4339,3.4357,3.4362,3.4364,3.4378,3.4389,3.4416,3.4417,3.4421,3.442,3.4446,3.4445,3.4445,3.4427,3.4425,3.4423,0,0,0,0,0,0,3.4248,3.4278,3.4287,3.4299,3.4315,3.4339,3.4343,3.4354,3.4367,3.4368,3.4388,3.4393,3.4401,3.4412,3.4413,3.4424,3.4432,3.4432,3.4417,3.4415,3.4413,3.4411,3.4429,0,0,0,0,0,3.4245,3.4257,3.4282,3.429,3.4298,3.4319,3.4327,3.4339,3.4355,3.4361,3.4376,3.439,3.4402,3.4409,3.4421,3.4428,3.4432,3.4429,3.4427,3.4425,3.4425,3.4428,3.4427,3.4443,3.4443,3.4443,0,0,3.4237,3.4255,3.4262,3.4286,3.4299,3.431,3.4324,3.4335,3.4343,3.4362,3.4374,3.4385,3.4402,3.441,3.4415,3.4419,3.4422,3.4425,3.4423,3.4424,3.4428,3.4426,3.4425,3.4443,3.4443,3.4443,0,0,3.4229,3.4245,3.4253,3.4266,3.4286,3.43,3.4301,3.4324,3.4333,3.4345,3.4359,3.4368,3.4388,3.4399,3.4407,3.4402,3.4412,3.4405,3.4395,3.4398,3.4397,3.4396,3.4393,3.4392,3.4404,3.4404,3.4404,0,3.4217,3.4236,3.4255,3.4266,3.4275,3.4294,3.4301,3.4312,3.4335,3.434,3.4345,3.4369,3.4382,3.4393,3.4392,3.4398,3.4399,3.4402,3.4396,3.4395,3.4394,3.4392,3.4391,3.4403,3.4404,3.4404,3.4404,0,3.422,3.4232,3.4236,3.4258,3.4268,3.4276,3.4295,3.4303,3.4313,3.4326,3.4337,3.4352,3.4367,3.4371,3.4381,3.4382,3.4385,3.4392,3.4401,3.4391,3.439,3.4389,3.4402,3.4402,3.4403,3.4403,0,0,3.42,3.4232,3.4233,3.4242,3.4265,3.4274,3.4283,3.4298,3.4304,3.4318,3.4325,3.434,3.4347,3.4357,3.4368,3.437,3.4364,3.4378,3.4379,3.4374,3.4365,3.4359,3.4358,3.4371,3.4371,3.4371,3.4364,0,3.4195,3.4213,3.423,3.4241,3.4252,3.4269,3.4276,3.429,3.4301,3.4311,3.4323,3.4334,3.4343,3.4348,3.4351,3.4364,3.4362,3.4365,3.4376,3.4376,3.4372,3.4357,3.4351,3.4344,3.4363,3.4363,3.4363,0,3.4193,3.4207,3.4219,3.424,3.4245,3.4251,3.4266,3.4275,3.4291,3.4299,3.4308,3.432,3.4328,3.4336,3.4346,3.4348,3.4353,3.436,3.436,3.4362,3.4369,3.4358,3.4343,3.4341,3.4362,3.4362,3.4362,0,3.4176,3.4198,3.4208,3.4216,3.424,3.4244,3.4254,3.427,3.4278,3.429,3.4295,3.4307,3.4314,3.4323,3.4338,3.4342,3.4346,3.4355,3.4352,3.4352,3.4353,3.4353,3.4337,3.4356,3.4356,3.4356,3.4356,0,3.4169,3.4176,3.4201,3.4207,3.4215,3.4233,3.4239,3.4251,3.4264,3.4271,3.4286,3.4293,3.4312,3.432,3.4331,3.4337,3.434,3.4346,3.4349,3.4345,3.4344,3.4349,3.435,3.4356,3.4356,3.4356,3.4356,0,3.4153,3.417,3.4182,3.4204,3.4209,3.4214,3.4232,3.4237,3.4249,3.4258,3.4261,3.428,3.429,3.4305,3.432,3.4327,3.4332,3.4337,3.4327,3.4329,3.4325,3.4325,3.4312,3.4311,3.4331,3.4331,3.4331,0,3.4147,3.4153,3.4175,3.4182,3.4192,3.4202,3.421,3.4227,3.4235,3.4252,3.4255,3.4266,3.4277,3.4292,3.4306,3.4316,3.4321,3.4316,3.4323,3.4318,3.4321,3.432,3.432,3.4314,3.4314,3.4314,3.4314,0,3.4136,3.4144,3.4155,3.4169,3.4179,3.419,3.4202,3.4206,3.4226,3.4233,3.4244,3.4252,3.4267,3.4278,3.429,3.4299,3.4309,3.4311,3.4311,3.4307,3.4301,3.4304,3.4322,3.4312,3.4312,3.4312,3.4312,3.4312,3.4125,3.413,3.4146,3.4158,3.4169,3.418,3.4186,3.4199,3.4208,3.4223,3.4232,3.4242,3.4255,3.4273,3.4281,3.4288,3.4293,3.4293,3.4293,3.4292,3.4291,3.43,3.4291,3.4291,3.4291,3.4291,3.4291,0,3.4113,3.4124,3.4135,3.4152,3.4161,3.417,3.4183,3.419,3.4199,3.4211,3.4221,3.4232,3.4243,3.4257,3.4268,3.4271,3.4275,3.4273,3.4273,3.4274,3.4286,3.4285,3.4269,3.4269,3.4269,3.4269,3.4269,3.4269,3.4109,3.4118,3.4127,3.4141,3.4152,3.4163,3.417,3.4179,3.4189,3.4201,3.421,3.422,3.4232,3.4244,3.4253,3.4257,3.426,3.4256,3.4261,3.4272,3.4274,3.4276,3.4275,3.4256,3.4256,3.4248,3.4248,3.4248]}]]